| time (UTC) | temp F | wind direction | speed MPH | gust MPH | rain 1hr in | rain 24hr in | rain mn in | humidity % | barometer mb |
| 20260506173059 | 59 | 210 | 5.0 | 14.0 | 0.04 | 0.61 | 0.61 | 91 | 1010.8 |
| 20260506171551 | 59 | 148 | 6.0 | 22.0 | 0.03 | 0.60 | 0.60 | 91 | 1011.0 |
| 20260506170040 | 59 | 237 | 14.0 | 23.0 | 0.01 | 0.58 | 0.58 | 89 | 1010.6 |
| 20260506164544 | 60 | 155 | 9.0 | 20.0 | 0.00 | 0.56 | 0.56 | 88 | 1009.7 |
| 20260506163059 | 61 | 176 | 5.0 | 18.0 | 0.00 | 0.56 | 0.56 | 87 | 1010.4 |
| 20260506161545 | 61 | 145 | 7.0 | 14.0 | 0.00 | 0.56 | 0.56 | 87 | 1010.6 |
| 20260506160043 | 62 | 236 | 5.0 | 14.0 | 0.00 | 0.56 | 0.56 | 87 | 1010.6 |
| 20260506154550 | 63 | 184 | 8.0 | 20.0 | 0.00 | 0.56 | 0.56 | 86 | 1010.6 |
| 20260506153041 | 62 | 137 | 8.0 | 13.0 | 0.00 | 0.56 | 0.56 | 89 | 1010.9 |
| 20260506151544 | 62 | 214 | 5.0 | 14.0 | 0.00 | 0.56 | 0.56 | 91 | 1011.1 |
| 20260506150044 | 61 | 188 | 4.0 | 13.0 | 0.00 | 0.56 | 0.56 | 92 | 1011.3 |
| 20260506144545 | 61 | 183 | 5.0 | 13.0 | 0.00 | 0.59 | 0.56 | 92 | 1011.4 |
| 20260506143042 | 60 | 214 | 2.0 | 9.0 | 0.00 | 0.59 | 0.56 | 93 | 1011.4 |
| 20260506141542 | 59 | 150 | 5.0 | 10.0 | 0.00 | 0.59 | 0.56 | 93 | 1011.5 |
| 20260506140047 | 59 | 173 | 5.0 | 9.0 | 0.00 | 0.59 | 0.56 | 93 | 1011.6 |
| 20260506134537 | 59 | 135 | 4.0 | 9.0 | 0.00 | 0.59 | 0.56 | 93 | 1011.8 |
| 20260506133045 | 58 | 0 | 4.0 | 7.0 | 0.00 | 0.59 | 0.56 | 93 | 1011.8 |
| 20260506131544 | 58 | 143 | 3.0 | 7.0 | 0.00 | 0.59 | 0.56 | 93 | 1012.0 |
| 20260506130043 | 58 | 167 | 3.0 | 8.0 | 0.01 | 0.59 | 0.56 | 93 | 1012.2 |
| 20260506124542 | 57 | 177 | 2.0 | 9.0 | 0.01 | 0.59 | 0.56 | 93 | 1012.2 |
| 20260506123038 | 57 | 153 | 5.0 | 15.0 | 0.01 | 0.59 | 0.56 | 93 | 1012.1 |
| 20260506121538 | 57 | 236 | 14.0 | 25.0 | 0.00 | 0.59 | 0.55 | 93 | 1012.3 |
| 20260506120050 | 57 | 43 | 5.0 | 16.0 | 0.00 | 0.58 | 0.55 | 93 | 1012.1 |
| 20260506114550 | 57 | 317 | 5.0 | 16.0 | 0.00 | 0.59 | 0.55 | 93 | 1012.0 |
| 20260506113043 | 57 | 191 | 6.0 | 14.0 | 0.00 | 0.59 | 0.55 | 93 | 1012.1 |
| 20260506111543 | 57 | 142 | 4.0 | 13.0 | 0.00 | 0.59 | 0.55 | 93 | 1012.3 |
| 20260506110038 | 57 | 128 | 5.0 | 21.0 | 0.02 | 0.59 | 0.55 | 93 | 1012.3 |
| 20260506104547 | 57 | 131 | 8.0 | 22.0 | 0.05 | 0.60 | 0.55 | 93 | 1012.3 |
| 20260506103044 | 57 | 146 | 6.0 | 17.0 | 0.07 | 0.60 | 0.55 | 94 | 1012.4 |
| 20260506101544 | 57 | 205 | 7.0 | 17.0 | 0.11 | 0.60 | 0.55 | 94 | 1012.7 |
| 20260506100043 | 56 | 131 | 9.0 | 16.0 | 0.12 | 0.58 | 0.52 | 94 | 1012.7 |
| 20260506094546 | 55 | 143 | 6.0 | 20.0 | 0.12 | 0.55 | 0.49 | 94 | 1012.7 |
| 20260506093105 | 55 | 207 | 8.0 | 19.0 | 0.14 | 0.52 | 0.47 | 94 | 1012.8 |
| 20260506091547 | 55 | 206 | 6.0 | 15.0 | 0.14 | 0.48 | 0.43 | 94 | 1012.6 |
| 20260506090051 | 56 | 172 | 9.0 | 19.0 | 0.14 | 0.45 | 0.40 | 94 | 1012.5 |
| 20260506084544 | 56 | 158 | 9.0 | 16.0 | 0.14 | 0.41 | 0.36 | 94 | 1012.4 |
| 20260506083044 | 56 | 150 | 9.0 | 14.0 | 0.14 | 0.38 | 0.33 | 93 | 1012.6 |
| 20260506081540 | 56 | 199 | 3.0 | 12.0 | 0.14 | 0.34 | 0.29 | 93 | 1012.7 |
| 20260506073044 | 56 | 224 | 4.0 | 14.0 | 0.17 | 0.23 | 0.18 | 93 | 1012.5 |
| 20260506071544 | 57 | 192 | 2.0 | 12.0 | 0.14 | 0.20 | 0.14 | 92 | 1012.4 |
| 20260506061552 | 57 | 199 | 6.0 | 14.0 | 0.00 | 0.05 | 0.00 | 90 | 1012.4 |
| 20260506044545 | 57 | 129 | 3.0 | 9.0 | 0.00 | 0.05 | 0.00 | 90 | 1012.2 |
| 20260506043050 | 57 | 128 | 3.0 | 8.0 | 0.00 | 0.05 | 0.00 | 91 | 1012.2 |
| 20260506041554 | 57 | 137 | 5.0 | 10.0 | 0.00 | 0.05 | 0.00 | 91 | 1012.1 |
| 20260506040043 | 56 | 118 | 1.0 | 5.0 | 0.00 | 0.05 | 0.00 | 91 | 1012.3 |
| 20260506034541 | 56 | 135 | 4.0 | 9.0 | 0.00 | 0.05 | 0.00 | 90 | 1012.3 |
| 20260506033050 | 57 | 146 | 4.0 | 9.0 | 0.00 | 0.05 | 0.00 | 91 | 1012.5 |
| 20260506031547 | 56 | 101 | 3.0 | 12.0 | 0.00 | 0.05 | 0.00 | 91 | 1012.5 |
| 20260506030043 | 56 | 145 | 5.0 | 12.0 | 0.00 | 0.05 | 0.00 | 91 | 1012.8 |
| 20260506024543 | 56 | 167 | 6.0 | 10.0 | 0.00 | 0.05 | 0.00 | 91 | 1012.8 |
| 20260506023050 | 56 | 138 | 5.0 | 9.0 | 0.00 | 0.05 | 0.00 | 92 | 1013.0 |
| 20260506021539 | 55 | 167 | 4.0 | 8.0 | 0.00 | 0.05 | 0.00 | 91 | 1013.2 |
| 20260506020108 | 56 | 143 | 3.0 | 7.0 | 0.00 | 0.05 | 0.00 | 91 | 1013.1 |
| 20260506014545 | 56 | 141 | 3.0 | 12.0 | 0.00 | 0.05 | 0.00 | 91 | 1013.3 |
| 20260506013043 | 56 | 138 | 3.0 | 7.0 | 0.00 | 0.05 | 0.00 | 91 | 1013.3 |
| 20260506011548 | 56 | 203 | 5.0 | 10.0 | 0.00 | 0.05 | 0.00 | 91 | 1013.2 |
| 20260506010040 | 56 | 183 | 5.0 | 10.0 | 0.00 | 0.05 | 0.00 | 91 | 1013.1 |
| 20260506004542 | 56 | 143 | 4.0 | 12.0 | 0.00 | 0.05 | 0.00 | 91 | 1013.0 |
| 20260506003038 | 56 | 157 | 7.0 | 15.0 | 0.00 | 0.05 | 0.00 | 91 | 1013.0 |
| 20260506001549 | 56 | 159 | 7.0 | 11.0 | 0.00 | 0.05 | 0.00 | 91 | 1013.1 |
| 20260506000057 | 56 | 158 | 4.0 | 12.0 | 0.00 | 0.05 | 0.00 | 91 | 1013.2 |
| 20260505234544 | 56 | 174 | 3.0 | 13.0 | 0.00 | 0.05 | 0.00 | 91 | 1013.4 |
| 20260505233048 | 56 | 164 | 3.0 | 15.0 | 0.00 | 0.05 | 0.00 | 91 | 1013.4 |
| 20260505231546 | 56 | 202 | 6.0 | 15.0 | 0.00 | 0.05 | 0.00 | 91 | 1013.6 |
| 20260505230049 | 56 | 172 | 5.0 | 13.0 | 0.00 | 0.05 | 0.00 | 91 | 1013.8 |
| 20260505224548 | 55 | 194 | 7.0 | 16.0 | 0.00 | 0.05 | 0.00 | 91 | 1013.7 |
| 20260505223044 | 55 | 197 | 6.0 | 14.0 | 0.00 | 0.05 | 0.00 | 91 | 1014.0 |
| 20260505221550 | 55 | 133 | 5.0 | 10.0 | 0.00 | 0.05 | 0.00 | 91 | 1014.0 |
| 20260505214545 | 55 | 179 | 5.0 | 12.0 | 0.00 | 0.05 | 0.05 | 92 | 1014.1 |
| 20260505213044 | 55 | 177 | 3.0 | 11.0 | 0.00 | 0.05 | 0.05 | 92 | 1014.3 |
| 20260505211609 | 55 | 201 | 3.0 | 9.0 | 0.00 | 0.05 | 0.05 | 92 | 1014.5 |
| 20260505210046 | 55 | 192 | 4.0 | 10.0 | 0.00 | 0.05 | 0.05 | 92 | 1014.5 |
| 20260505204556 | 55 | 189 | 4.0 | 11.0 | 0.00 | 0.05 | 0.05 | 92 | 1014.3 |
| 20260505203039 | 55 | 152 | 3.0 | 8.0 | 0.00 | 0.05 | 0.05 | 92 | 1014.3 |
| 20260505201540 | 55 | 166 | 5.0 | 9.0 | 0.00 | 0.05 | 0.05 | 92 | 1014.4 |
| 20260505200045 | 55 | 182 | 5.0 | 11.0 | 0.00 | 0.05 | 0.05 | 92 | 1014.4 |
| 20260505194544 | 55 | 159 | 5.0 | 13.0 | 0.00 | 0.05 | 0.05 | 92 | 1014.5 |
| 20260505193044 | 55 | 166 | 8.0 | 14.0 | 0.00 | 0.05 | 0.05 | 92 | 1014.4 |
| 20260505191543 | 55 | 189 | 6.0 | 10.0 | 0.00 | 0.05 | 0.05 | 92 | 1014.3 |
| 20260505190040 | 55 | 190 | 3.0 | 8.0 | 0.00 | 0.05 | 0.05 | 93 | 1014.4 |
| 20260505184542 | 55 | 150 | 1.0 | 6.0 | 0.00 | 0.05 | 0.05 | 93 | 1014.3 |
| 20260505183044 | 55 | 0 | 3.0 | 6.0 | 0.00 | 0.05 | 0.05 | 93 | 1014.2 |
| 20260505181604 | 55 | 0 | 1.0 | 5.0 | 0.00 | 0.05 | 0.05 | 93 | 1014.1 |
| 20260505180052 | 55 | 137 | 3.0 | 8.0 | 0.00 | 0.05 | 0.05 | 93 | 1013.9 |
| 20260505174544 | 55 | 141 | 4.0 | 8.0 | 0.00 | 0.05 | 0.05 | 93 | 1013.9 |